Content
SEND FEEDBACK

Daily
Averages
Monthly
Summary
United States of America

JUDITH GAP, MONTANA


Home > North America > United States > Montana
Elevation: 5427 feet     Latitude: 46 41N     Longitude: 109 29W

WEATHER
 
SELECT A DAY
Number of Records: 267,792;   Date Range: 1/1/95 - 12/19/14
 
SHARE

PRINT THIS DATA

[ ← Previous Day ]
WEATHER ALMANAC - JANUARY 3, 2013
[ Next Day → ]
[ °C ]   °F
Weather ElementAverageHighLow
Temperature22.7 °F37 °F (12:54 pm)12 °F (4:54 am)
Dewpoint6.5 °F19 °F (2:54 pm)-0.9 °F (1:54 am)
Humidity50.7 %65 % (8:54 pm)34 % (1:54 pm)
Barometer30.23 in30.31 in (1:54 am)30.14 in (11:54 pm)
Wind Speed5.3 mph10.4 mph (2:54 am)
Weather ElementAverage
Visibility10 mi
Wind DirectionESE (107.8 °)

Weather ElementTotal
Precipitation---
Heating Degree Days40.5 (Base 65)
Averaged from 23 records on January 3, 2013
WEATHER CONDITIONS BREAKOUT
WIND DIRECTION BREAKOUT
WEATHER BY HOUR - JANUARY 3, 2013
[ °C ]   °F
Local TimeTemperatureDewpointHumidityBarometerVisibilityWind DirectionWind SpeedGust SpeedPrecipitationEventsConditions
1:54 AM12.9 °F-0.9 °F54 %30.31 in10.0 miSE (140°)9.2 mphClear
2:54 AM15.1 °F-0.9 °F49 %30.29 in10.0 miSE (130°)10.4 mphClear
3:54 AM16.0 °F-0.9 °F47 %30.27 in10.0 miSE (140°)9.2 mphClear
4:54 AM12.0 °F-0.9 °F56 %30.28 in10.0 miSouth (170°)4.6 mphClear
5:54 AM16.0 °F0.0 °F49 %30.26 in10.0 miSSE (150°)5.8 mphClear
6:54 AM17.1 °F0.0 °F47 %30.26 in10.0 miSSE (150°)8.1 mphClear
7:54 AM14.0 °F1.0 °F56 %30.27 in10.0 miSE (140°)5.8 mphClear
8:54 AM16.0 °F1.9 °F54 %30.27 in10.0 miSSE (150°)5.8 mphClear
9:54 AM21.9 °F5.0 °F48 %30.25 in10.0 miSE (140°)3.5 mphClear
10:54 AM28.9 °F8.1 °F41 %30.24 in10.0 miCalmClear
11:54 AM30.9 °F9.0 °F40 %30.21 in10.0 miCalmClear
12:54 PM37.0 °F12.9 °F37 %30.18 in10.0 miCalmClear
1:54 PM37.0 °F10.9 °F34 %30.18 in10.0 miCalmClear
2:54 PM35.1 °F19.0 °F52 %30.19 in10.0 miCalmClear
3:54 PM33.1 °F14.0 °F46 %30.19 in10.0 miSSW (210°)10.4 mphClear
4:54 PM30.9 °F12.9 °F47 %30.21 in10.0 miESE (120°)5.8 mphClear
5:54 PM26.1 °F10.9 °F53 %30.22 in10.0 miSSE (150°)6.9 mphClear
6:54 PM19.9 °F8.1 °F60 %30.23 in10.0 miSE (130°)5.8 mphClear
7:54 PM24.1 °F10.0 °F55 %30.22 in10.0 miSSE (150°)6.9 mphClear
8:54 PM17.1 °F7.0 °F65 %30.22 in10.0 miCalmClear
9:54 PM21.0 °F8.1 °F57 %30.18 in10.0 miSE (130°)8.1 mphClear
10:54 PM18.0 °F7.0 °F62 %30.16 in10.0 miSE (140°)8.1 mphClear
11:54 PM21.0 °F8.1 °F57 %30.14 in10.0 miSE (140°)6.9 mphClear
Hourly data recorded from KLWT, located miles away from Judith Gap, Montana







STORIES FROM OUR PARTNERS